Aérodrome :
LOGIN :

S'inscrire | Disclaimer

   EN    FR    IT 

 










Légende :    VFR   VFR Marginal   IFR   IFR Intensif   IFR Très Intensif
Visi : 
Plafond : 
>= 8 km
>= 3000ft
5 à 8 km
1000 à 3000 ft
1500m à 5 km
500 à 1000 ft
800 à 1500m
200 à 500 ft
< 800m
< 200 ft
Symboles :   Orages  Brouillard  Fortes neiges  Fortes précipitations  Vent > 20 kt
SIGMETs :   Divers  Orages  Givrage  Turbulence  Onde Orograph.  Cendres Volcan.







- Altitude de l'aérodrome : 297 ft


EGVP - Middle Wallop

DERNIER METAR :
  • 201350Z 21011KT 9999 FEW035 BKN041 BKN110 17/09 Q1018 BLU NOSIG

METARs EXPIRÉS :
  • 201250Z 22011KT 9999 FEW030 BKN040 17/09 Q1018 BLU NOSIG
  • 201150Z 19009KT 9999 FEW024 BKN035 17/12 Q1018 BLU NOSIG

TAF TAF EGVP
Valide du 20 à 12h jusqu'au 20 à 21h UTC


201035Z 2012/2021 22012KT 9999 FEW020 BKN040
TEMPO 2012/2014 SCT020
PROB30
TEMPO 2020/2021 -RA SCT014
ATIS : +44 1980 674 142
Pas de NOTAMs connus pour ce terrain.



MET'MAP, la Météo Aéronautique d'un coup d'oeil ! - Copyright ORBIFLY Décembre 2007 - Disclaimer

ORBIFLY MET'MAP TEAM :

Programmation & Développement : Alexandra Zaïnal
Conception & Développement : Baudouin d'Aumeries
Co-Programmation & Développement : Marc-Olivier Méhu
Soutien technique & logistique : Manuel Goepfert

Contact : metmap@orbifly.com




SOURCES & CREDITS :

   NOAA